Location: Blue Mountain Vista Observatory
(40.6992°N, 75.9422°W)
Time: 18:20:42
(UTC-04:00)

Daily predictions for brighter satellites

Satellite Brightness Start Highest point End
(mag) Time Altitude Azimuth Time Altitude Azimuth Time Altitude Azimuth
Okean 3 Rocket 3.7 19:10:59 10° N 19:15:31 62° E 19:20:01 10° SSE
CENTAUR R/B 4.1 19:15:16 10° ESE 19:16:29 11° ESE 19:17:45 10° E
Meteor 1-28 Rocket 3.7 19:13:55 10° NNE 19:17:24 37° E 19:20:50 10° SSE
Cosmos 2297 3.7 19:12:13 10° NNW 19:17:53 67° ENE 19:23:28 10° SSE
Meteor 1-22 Rocket 4.1 19:13:17 10° S 19:18:32 60° E 19:23:44 10° NNE
Resurs 01 Rocket 2.6 19:15:22 10° SE 19:19:09 28° ENE 19:22:58 10° N
NOSS 3-2 (C) 3.7 19:13:28 10° S 19:19:15 50° ESE 19:25:31 10° NE
SAR-Lupe-4 3.6 19:16:35 10° SSE 19:20:05 57° ENE 19:23:35 10° N
Spot 2 Rocket 4.0 19:20:40 10° SE 19:25:15 37° ENE 19:29:51 10° N
Meteor 1-24 Rocket 3.7 19:21:44 10° N 19:27:25 79° E 19:32:50 10° SSE
Cosmos 1707 3.5 19:24:04 10° NNW 19:27:51 56° W 19:31:37 10° S
Cosmos 2369 Rocket 3.9 19:26:17 10° NNE 19:29:18 14° NE 19:32:20 10° E
Cosmos 2056 Rocket 3.7 19:25:08 10° NNW 19:30:36 87° WSW 19:36:01 10° SSE
Helios 1A 3.8 19:27:08 10° SE 19:30:51 31° ENE 19:34:36 10° N
ATLAS CENTAUR R/B 3.5 19:27:46 10° SSW 19:32:22 69° ESE 19:46:46 10° NE
Cosmos 1603 4.4 19:29:26 10° SSE 19:34:26 32° ESE 19:39:28 10° NE
Cosmos 1072 Rocket 4.4 19:30:03 10° S 19:36:05 68° E 19:42:09 10° NNE
Cosmos 1470 4.5 19:38:36 13° E 19:38:41 13° E 19:40:33 10° ENE
SJ-6B 2.8 19:38:04 10° SSE 19:42:02 90° WNW 19:46:07 10° NNW
GPS 2-04 Rocket1 4.4 19:41:30 10° SSW 19:43:37 15° SSE 19:45:05 12° SE
COSMO-SKYMED 1 3.9 19:40:13 10° N 19:44:22 44° WNW 19:48:29 10° SW
Cosmos 2333 Rocket 4.3 19:42:52 10° WSW 19:47:51 29° NW 19:52:52 10° N
NOAA 12 4.2 19:45:59 10° SSE 19:51:14 84° WSW 19:56:33 10° NNW
Cosmos 192 4.3 19:46:18 10° SSW 19:51:15 89° ESE 19:56:15 10° NNE
Spot 1 4.2 19:47:08 10° SSE 19:51:54 75° ENE 19:56:24 10° N
Timation 1 Rocket 4.4 19:46:00 10° NNW 19:52:00 90° WSW 19:57:58 10° SSE
Cosmos 1758 3.4 19:49:07 10° S 19:53:05 54° E 19:57:07 10° NNE
HJ-1C 3.3 19:50:56 10° SSE 19:54:16 66° ENE 19:57:36 10° N
FengYun 1-2 T 4.3 19:50:40 10° SSE 19:56:02 56° ENE 20:01:24 10° N
USA 215 3.2 19:49:37 10° NE 19:56:10 71° SE 20:02:40 10° SW
In-Cosmos 22 4.2 19:51:02 10° N 19:56:50 73° E 20:02:33 10° SSE
Aureole 2 Rocket 4.2 19:55:44 10° SW 19:59:57 45° WNW 20:04:05 10° N
OAO 3 Rocket 3.8 19:55:32 10° WSW 20:00:01 42° S 20:02:48 21° ESE
ISS -1.7 19:58:29 10° S 20:00:33 19° SE 20:00:33 19° SE
Cosmos 1674 3.7 19:57:41 10° NNE 20:00:59 26° ENE 20:01:38 24° E
Cosmos 1766 Rocket 3.5 20:00:08 10° N 20:04:32 89° E 20:08:52 10° S
ASTRO E2 4.5 20:03:20 10° SW 20:06:26 21° S 20:08:09 16° SSE
ALOS 2.4 20:04:00 11° SSE 20:08:24 51° ENE 20:12:56 10° N
CZ-4C R/B 4.3 20:04:22 10° W 20:08:57 26° NW 20:14:01 10° NNE
Cosmos 2034 Rocket 4.0 20:04:28 10° S 20:10:44 86° E 20:17:06 10° N
Helios 1B rocket 2.4 20:07:55 10° NNE 20:12:03 85° WNW 20:16:10 10° SSW
Meteor 1-29 2.9 20:09:06 10° NNE 20:12:38 83° ESE 20:16:07 10° S
Cosmos 1464 Rocket 4.3 20:06:25 10° SSW 20:12:38 69° W 20:18:49 10° N
Meteor 1-21 Rocket 4.1 20:08:21 10° N 20:13:56 75° E 20:19:26 10° SSE
ATLAS 5 CENTAUR R/B 2.0 20:10:03 10° SW 20:14:48 73° NW 20:20:00 10° NNE
ERS-1 Rocket 4.4 20:15:07 20° ENE 20:15:07 20° ENE 20:18:40 10° NNE
Cosmos 1076 Rocket 4.3 20:11:33 10° NNW 20:15:47 55° W 20:20:01 10° S
SeaSat 1 3.1 20:12:45 10° NE 20:17:10 32° ESE 20:21:32 10° S
Atlas Centaur 2 4.5 20:10:36 10° WSW 20:17:24 27° SSW 20:23:25 11° SSE
Cosmos-2242 3.1 20:17:12 10° S 20:21:33 79° W 20:25:58 10° N
CZ-4B DEB 2.6 20:23:55 50° SSE 20:24:39 75° ENE 20:27:55 10° N
Cosmos 1452 Rocket 3.9 20:21:57 10° NNW 20:27:09 64° WSW 20:32:19 10° S
SL-16 R/B 3.9 20:26:00 10° WSW 20:31:07 34° WNW 20:36:17 10° N
Cosmos 2151 4.2 20:30:51 10° NNE 20:33:19 26° NE 20:33:19 26° NE
CZ-2D R/B 3.1 20:33:52 46° SSE 20:34:58 80° ENE 20:38:53 10° N
Cosmos 1842 Rocket 3.4 20:32:26 10° S 20:36:44 71° E 20:41:04 10° NNE
Cosmos 1500 Rocket 3.4 20:33:48 10° N 20:38:14 72° E 20:39:25 47° SSE
SL-8 R/B 3.5 20:36:25 10° SW 20:41:10 73° SSE 20:42:04 56° E
Cosmos 1544 3.9 20:38:22 10° SSW 20:42:01 52° W 20:45:42 10° N
Gbstr 26 Del rocket 3.7 20:42:13 10° SSW 20:45:51 44° SSE 20:45:51 44° SSE
Cosmos 1953 4.2 20:43:38 10° SW 20:47:13 31° WNW 20:50:48 10° NNW
Cosmos 1420 Rocket 4.1 20:44:00 10° NNW 20:49:18 74° WSW 20:52:00 30° S
H-2A R/B 3.1 20:50:10 49° SSW 20:51:00 65° W 20:54:53 10° NNW
FENGYUN 3A 4.0 20:47:47 11° S 20:52:53 63° W 20:58:15 10° NNW
Resurs 01 Rocket 3.7 20:51:50 10° SSW 20:55:34 26° W 20:59:20 10° NW
ASTEX 1 3.8 20:53:22 10° N 20:58:14 61° W 21:03:02 10° SSW
CENTAUR R/B 2.3 20:59:43 10° SSW 21:05:42 77° ESE 21:12:29 10° NE
Cosmos 1943 3.1 21:08:25 10° SSW 21:14:03 87° WNW 21:19:43 10° NNE
Cosmos 2369 Rocket 2.0 21:08:30 10° NNW 21:14:12 86° ENE 21:14:17 85° E
Cosmos 1470 4.1 21:13:51 36° W 21:14:24 38° WNW 21:18:04 10° N
Envisat 3.7 21:16:19 43° NNE 21:16:19 43° NNE 21:19:51 10° N
Cosmos 1943 Rocket 3.1 21:12:45 10° N 21:16:39 35° NNE 21:16:39 35° NNE
Cosmos 2263 4.3 21:13:11 10° NNW 21:18:21 63° NNE 21:18:21 63° NNE
Cosmos 2279 Rocket 4.3 21:22:58 52° NE 21:22:58 52° NE 21:27:42 10° NNE
GP-B 4.0 21:19:40 10° N 21:23:34 48° WNW 21:23:34 48° WNW
Cosmos 1655 Rocket 3.8 21:20:24 10° N 21:26:29 83° NE 21:26:29 83° NE
USA 215 4.3 21:33:35 13° NE 21:38:54 40° NNW 21:44:52 10° W
Cosmos 2026 Rocket 4.2 21:36:49 10° NNW 21:42:51 65° W 21:42:57 65° W
ERS-1 Rocket 4.4 21:55:08 36° NW 21:55:08 36° NW 21:58:23 10° NNW
SeaSat 1 3.9 21:50:13 10° N 21:54:39 34° NW 21:59:05 10° WSW
CENTAUR R/B 4.4 22:52:00 10° W 22:57:11 26° NW 23:02:54 10° NNE
